Regional Weather Roundup
Issued by NWS Upton, NY

Current Version | Previous Version | Graphics & Text | Print | Product List | Glossary Off
Versions: 1 2 3 4 5 6 7 8 9 10 11 12 13 14 15 16 17 18 19 20 21 22 23 24 25 26 27 28 29 30 31 32 33 34 35 36 37 38 39 40 41 42 43 44 45 46 47 48 49 50

000
ASUS41 KOKX 041108
RWROKX

REGIONAL WEATHER ROUNDUP
NATIONAL WEATHER SERVICE NEW YORK NY
700 AM EDT MON MAY 04 2015

NOTE: "FAIR" INDICATES FEW OR NO CLOUDS BELOW 12,000 FEET WITH NO
SIGNIFICANT WEATHER AND/OR OBSTRUCTIONS TO VISIBILITY.

NYZ071-072-176-178-NJZ106-104-041200-
NEW YORK CITY METRO AREA


CITY           SKY/WX    TMP DP  RH WIND       PRES   REMARKS
CENTRAL PARK   SUNNY     58  47  66 CALM      30.23R
LAGUARDIA APRT MOSUNNY   54  46  74 NE3       30.20R
KENNEDY INTL   FAIR      54  51  90 CALM      30.22R
NEWARK/LIBERTY MOSUNNY   58  46  64 CALM      30.20R
BRNX BOT. GARD   N/A     54  50  87 CALM      30.20S
TETERBORO      SUNNY     56  44  64 CALM      30.19R
$$

NYZ177-179-078>081-041200-
LONG ISLAND NEW YORK

CITY           SKY/WX    TMP DP  RH WIND       PRES   REMARKS
FARMINGDALE    SUNNY     51  49  92 CALM      30.21R
ISLIP          MOSUNNY   53  51  93 CALM      30.20R
SHIRLEY        SUNNY     52  50  93 S3        30.22R
WESTHAMPTON    SUNNY     48  46  93 S3        30.23R FOG
MONTAUK POINT    N/A     51  49  92 VRB3      30.23R
$$

NYZ052-065-067-041200-
HUDSON VALLEY

CITY           SKY/WX    TMP DP  RH WIND       PRES   REMARKS
WHITE PLAINS   SUNNY     50  47  89 CALM      30.20R
NEWBURGH       SUNNY     50  45  81 CALM      30.20R
MONTGOMERY     SUNNY     46  43  89 CALM      30.18R
POUGHKEEPSIE   SUNNY     48  43  82 CALM      30.18R
ALBANY         MOSUNNY   57  41  55 S5        30.16R
$$

NJZ001-105-106-008-010-013-015-019>022-104-041200-
NEW JERSEY

CITY           SKY/WX    TMP DP  RH WIND       PRES   REMARKS
NEWARK/LIBERTY MOSUNNY   58  46  64 CALM      30.20R
TETERBORO      SUNNY     56  44  64 CALM      30.19R
CALDWELL       SUNNY     49  45  86 CALM      30.20R
MORRISTOWN     SUNNY     45  43  93 CALM      30.20R
SOMERVILLE     SUNNY     46  42  86 CALM      30.19R
SUSSEX         SUNNY     46  42  86 SW3       30.21R
ANDOVER          N/A     50  47  89 CALM      30.20R
TRENTON        SUNNY     52  42  69 CALM      30.20R
MILLVILLE      SUNNY     49  47  93 CALM      30.22R
ATLANTIC CITY  SUNNY     50  47  89 CALM      30.22R
WRIGHTSTOWN    SUNNY     49  47  93 CALM      30.19R
TOMS RIVER     SUNNY     46  43  87 CALM      30.22R
BELMAR         SUNNY     55  43  62 SW5       30.21R
$$

PAZ047>061-062-071-041200-
EASTERN PENNSYLVANIA

CITY           SKY/WX    TMP DP  RH WIND       PRES   REMARKS
PHILADELPHIA   MOSUNNY   57  51  80 CALM      30.21R
ALLENTOWN      SUNNY     50  43  77 CALM      30.20R
SCRANTON       MOSUNNY   54  39  57 CALM      30.19R
$$

CTZ002-004>006-009-010-012-RIZ004-006-007-MAZ004-011-015-041200-
SOUTHERN NEW ENGLAND
 IN CT

CITY           SKY/WX    TMP DP  RH WIND       PRES   REMARKS
BRADLEY INTL   MOSUNNY   50  45  83 CALM      30.19R
HARTFORD       SUNNY     51  32  48 S3        30.21R
DANBURY        SUNNY     46  41  82 CALM      30.22R
WTRBRY/OXFORD  SUNNY     50  43  76 SW5       30.23R
BRIDGEPORT     SUNNY     51  48  89 NE3       30.21R
MERIDEN        MOSUNNY   47  44  90 CALM      30.21R
NEW HAVEN      MOSUNNY   48  47  96 CALM      30.21R
CHESTER        DRZL/FOG  46  46 100 CALM      30.22R VSB<1/4
GROTON         SUNNY     47  44  90 CALM      30.22R
WILLIMANTIC    SUNNY     45  41  86 CALM      30.22R

 IN RI

CITY           SKY/WX    TMP DP  RH WIND       PRES   REMARKS
PROVIDENCE     MOSUNNY   48  46  93 S5        30.22
BLOCK ISLAND   CLOUDY    50  46  87 SW13      30.22R VSB 1/4
WESTERLY       SUNNY     45  43  93 CALM      30.23R

 IN MA

CITY           SKY/WX    TMP DP  RH WIND       PRES   REMARKS
BOSTON         MOSUNNY   52  45  77 SW12      30.19R
WORCESTER      SUNNY     59  38  45 W12       30.19R
WESTFIELD      MOSUNNY   47  43  86 CALM      30.19R
PROVINCETOWN   SUNNY     52  48  87 S10       30.21S
NANTUCKET      SUNNY     51  47  86 SW10      30.25R
$$

ANZ330-335-338-340-345-350-353-355-041200-
COASTAL MARINE OBSERVATIONS


STATION/POSITION TIME  SKY/WX   TEMP    WIND        PRES    VSBY  WAVE
                                AIR SEA DIR/SP/G                  HT/PER
                 (UTC)          (F)     (DEG/KT/KT) (MB)    (MI)  (FT/S)
NY HARB ENTRANCE 1050            52 51  190/  6/  6 1022.7          3/ 8
4S FIRE IS       1003               49                N/A           3/12
20S FIRE ISLAND  1050            50 48  190/  8/  8 1023.2          3/ 8
GREAT SOUTH BAY  1000            53 58  230/  8/  8   N/A
23SW MTP         1050            48 45  190/  8/  8 1023.5          3/ 8
HUDSON CANYON    NOT AVBL
EXECUTION ROCKS  NOT AVBL
WESTERN LI SOUND NOT AVBL
CENTRAL LI SOUND NOT AVBL
EASTERN LI SOUND 1000            46     180/  2/  4   N/A
ROBBINS REEF     1000            53     170/  7/  8 1021.1
$$


>>>>>>>>>>>>>>>>>>>>>>>>>>>> KEY <<<<<<<<<<<<<<<<<<<<<<<<<<<
>                                                          <
>     SKY/WX - SKY CONDITION/PRESENT WEATHER               <
>     TMP    - TEMPERATURE IN FAHRENHEIT                   <
>     DP     - DEWPOINT IN FAHRENHEIT                      <
>     RH     - RELATIVE HUMIDITY IN PERCENT                <
>     WIND   - DIRECTION AND SPEED IN MPH                  <
>     PRES   - MEAN SEA LEVEL PRESSURE IN INCHES OF HG     <
>     WCI    - WIND CHILL INDEX                            <
>     VSB    - VISIBILITY IN MILES                         <
>     HX     - HEAT INDEX                                  <
>     TC     - TEMPERATURE IN CELSIUS                      <
>     VRB    - VARIABLE WIND DIRECTION                     <
>                                                          <
>>>>>>>>>>>>>>>>>>>>>>>>>>>> KEY <<<<<<<<<<<<<<<<<<<<<<<<<<<




USA.gov is the U.S. government's official web portal to all federal, state and local government web resources and services.